| time (UTC) | temp C | wind direction | speed KPH | gust KPH | rain 1hr cm | rain 24hr cm | rain mn cm | humidity % | barometer mb |
| 20260508120735 | 7 | 283 | 12.9 | 19.3 | 0.00 | 0.00 | 0.00 | 35 | 1023.2 |
| 20260508114735 | 7 | 253 | 4.8 | 14.5 | 0.00 | 0.00 | 0.00 | 33 | 1023.1 |
| 20260508112736 | 7 | 324 | 12.9 | 20.9 | 0.00 | 0.00 | 0.00 | 33 | 1022.9 |
| 20260508110735 | 7 | 321 | 8.0 | 16.1 | 0.00 | 0.00 | 0.00 | 35 | 1022.9 |
| 20260508104735 | 6 | 14 | 8.0 | 16.1 | 0.00 | 0.00 | 0.00 | 36 | 1022.9 |
| 20260508102735 | 6 | 334 | 9.7 | 17.7 | 0.00 | 0.00 | 0.00 | 35 | 1022.7 |
| 20260508100735 | 6 | 32 | 3.2 | 8.0 | 0.00 | 0.00 | 0.00 | 34 | 1022.6 |
| 20260508094735 | 6 | 269 | 12.9 | 17.7 | 0.00 | 0.00 | 0.00 | 39 | 1022.6 |
| 20260508092734 | 6 | 329 | 8.0 | 17.7 | 0.00 | 0.00 | 0.00 | 39 | 1022.4 |
| 20260508090735 | 5 | 275 | 12.9 | 24.1 | 0.00 | 0.00 | 0.00 | 41 | 1022.4 |
| 20260508084734 | 6 | 337 | 4.8 | 11.3 | 0.00 | 0.00 | 0.00 | 40 | 1022.2 |
| 20260508082733 | 5 | 309 | 8.0 | 12.9 | 0.00 | 0.00 | 0.00 | 41 | 1022.2 |
| 20260508080735 | 6 | 356 | 6.4 | 12.9 | 0.00 | 0.00 | 0.00 | 41 | 1022.1 |
| 20260508074734 | 6 | 123 | 4.8 | 9.7 | 0.00 | 0.00 | 0.00 | 45 | 1022.0 |
| 20260508072734 | 6 | 78 | 4.8 | 16.1 | 0.00 | 0.00 | 0.00 | 44 | 1021.9 |
| 20260508070735 | 6 | 64 | 6.4 | 17.7 | 0.00 | 0.00 | 0.00 | 47 | 1021.8 |
| 20260508064734 | 5 | 72 | 9.7 | 14.5 | 0.00 | 0.00 | 0.00 | 50 | 1021.8 |
| 20260508062734 | 5 | 75 | 9.7 | 16.1 | 0.00 | 0.00 | 0.00 | 52 | 1021.8 |
| 20260508060735 | 3 | 51 | 6.4 | 11.3 | 0.00 | 0.00 | 0.00 | 54 | 1021.7 |
| 20260508054735 | 3 | 58 | 6.4 | 9.7 | 0.00 | 0.00 | 0.00 | 56 | 1021.5 |
| 20260508052734 | 2 | 129 | 3.2 | 6.4 | 0.00 | 0.00 | 0.00 | 60 | 1021.4 |
| 20260508050734 | 2 | 326 | 3.2 | 4.8 | 0.00 | 0.00 | 0.00 | 59 | 1021.3 |
| 20260508044734 | 1 | 67 | 3.2 | 6.4 | 0.00 | 0.00 | 0.00 | 62 | 1021.3 |
| 20260508040733 | 1 | 119 | 1.6 | 3.2 | 0.00 | 0.00 | 0.00 | 61 | 1021.1 |
| 20260508034734 | 1 | 323 | 1.6 | 3.2 | 0.00 | 0.00 | 0.00 | 64 | 1021.1 |
| 20260508032734 | 0 | 213 | 1.6 | 3.2 | 0.00 | 0.00 | 0.00 | 71 | 1021.0 |
| 20260508030734 | -1 | 263 | 4.8 | 6.4 | 0.00 | 0.00 | 0.00 | 76 | 1020.9 |
| 20260508024733 | -2 | 260 | 6.4 | 8.0 | 0.00 | 0.00 | 0.00 | 78 | 1020.9 |
| 20260508022732 | -2 | 241 | 3.2 | 6.4 | 0.00 | 0.00 | 0.00 | 80 | 1020.9 |
| 20260508020733 | -3 | 249 | 3.2 | 4.8 | 0.00 | 0.00 | 0.00 | 82 | 1020.7 |
| 20260508014734 | -3 | 250 | 3.2 | 4.8 | 0.00 | 0.00 | 0.00 | 86 | 1020.6 |
| 20260508012733 | -3 | 261 | 3.2 | 3.2 | 0.00 | 0.00 | 0.00 | 87 | 1020.5 |
| 20260508010734 | -3 | 224 | 3.2 | 6.4 | 0.00 | 0.00 | 0.00 | 87 | 1020.2 |
| 20260508004734 | -3 | 225 | 4.8 | 6.4 | 0.00 | 0.00 | 0.00 | 85 | 1019.9 |
| 20260508002733 | -3 | 242 | 4.8 | 6.4 | 0.00 | 0.00 | 0.00 | 86 | 1019.9 |
| 20260508000735 | -3 | 244 | 4.8 | 6.4 | 0.00 | 0.00 | 0.00 | 86 | 1019.7 |
| 20260507234734 | -3 | 189 | 1.6 | 3.2 | 0.00 | 0.00 | 0.00 | 84 | 1019.6 |
| 20260507232733 | -2 | 155 | 3.2 | 4.8 | 0.00 | 0.00 | 0.00 | 77 | 1019.3 |
| 20260507230733 | -2 | 282 | 3.2 | 4.8 | 0.00 | 0.00 | 0.00 | 80 | 1019.2 |
| 20260507224732 | -2 | 232 | 6.4 | 9.7 | 0.00 | 0.00 | 0.00 | 77 | 1019.0 |
| 20260507222733 | -2 | 234 | 4.8 | 6.4 | 0.00 | 0.00 | 0.00 | 76 | 1018.9 |
| 20260507220733 | -2 | 274 | 3.2 | 4.8 | 0.00 | 0.00 | 0.00 | 80 | 1018.7 |
| 20260507214732 | -1 | 81 | 1.6 | 1.6 | 0.00 | 0.00 | 0.00 | 77 | 1018.5 |
| 20260507212732 | 0 | 252 | 3.2 | 4.8 | 0.00 | 0.00 | 0.00 | 71 | 1018.3 |
| 20260507210732 | -1 | 281 | 3.2 | 4.8 | 0.00 | 0.00 | 0.00 | 74 | 1018.2 |
| 20260507204733 | 0 | 102 | 3.2 | 4.8 | 0.00 | 0.00 | 0.00 | 68 | 1018.0 |
| 20260507202732 | 1 | 93 | 4.8 | 6.4 | 0.00 | 0.00 | 0.00 | 59 | 1017.7 |
| 20260507194732 | 2 | 78 | 3.2 | 4.8 | 0.00 | 0.00 | 0.00 | 54 | 1017.1 |
| 20260507192732 | 2 | 21 | 6.4 | 8.0 | 0.00 | 0.00 | 0.00 | 53 | 1016.9 |
| 20260507190731 | 2 | 27 | 9.7 | 12.9 | 0.00 | 0.00 | 0.00 | 53 | 1016.7 |
| 20260507184732 | 3 | 30 | 9.7 | 14.5 | 0.00 | 0.00 | 0.00 | 49 | 1016.5 |
| 20260507182731 | 4 | 22 | 11.3 | 16.1 | 0.00 | 0.00 | 0.00 | 48 | 1016.3 |
| 20260507180730 | 5 | 22 | 14.5 | 20.9 | 0.00 | 0.00 | 0.00 | 46 | 1016.1 |
| 20260507174732 | 5 | 24 | 12.9 | 17.7 | 0.00 | 0.00 | 0.00 | 45 | 1016.0 |
| 20260507172731 | 5 | 21 | 14.5 | 17.7 | 0.00 | 0.00 | 0.00 | 45 | 1015.8 |
| 20260507171053 | 5 | 28 | 16.1 | 20.9 | 0.00 | 0.00 | 0.00 | 44 | 1015.7 |
| 20260507164732 | 5 | 21 | 14.5 | 20.9 | 0.00 | 0.00 | 0.00 | 44 | 1015.5 |
| 20260507162731 | 5 | 24 | 16.1 | 19.3 | 0.00 | 0.00 | 0.00 | 43 | 1015.4 |
| 20260507160732 | 5 | 38 | 14.5 | 19.3 | 0.00 | 0.00 | 0.00 | 43 | 1015.3 |
| 20260507154731 | 6 | 24 | 14.5 | 19.3 | 0.00 | 0.00 | 0.00 | 43 | 1015.1 |
| 20260507152730 | 5 | 30 | 14.5 | 19.3 | 0.00 | 0.00 | 0.00 | 44 | 1015.1 |
| 20260507150732 | 6 | 30 | 16.1 | 20.9 | 0.00 | 0.00 | 0.00 | 43 | 1014.9 |
| 20260507144732 | 6 | 341 | 8.0 | 16.1 | 0.00 | 0.00 | 0.00 | 42 | 1014.9 |
| 20260507140731 | 6 | 9 | 14.5 | 25.7 | 0.00 | 0.00 | 0.00 | 44 | 1014.6 |
| 20260507132730 | 6 | 23 | 11.3 | 17.7 | 0.00 | 0.00 | 0.00 | 44 | 1014.5 |
| 20260507130732 | 5 | 52 | 16.1 | 22.5 | 0.00 | 0.00 | 0.00 | 47 | 1014.5 |
| 20260507124730 | 6 | 17 | 20.9 | 27.4 | 0.00 | 0.00 | 0.00 | 46 | 1014.4 |
| 20260507122730 | 6 | 34 | 11.3 | 16.1 | 0.00 | 0.00 | 0.00 | 41 | 1014.4 |